SWA3318 KMDW-KMKE

Flight info

Callsign SWA3318
Flight time 0h 55m
Altitude 7000
Route RAYNR BRTMN TAAYZ
Aircraft B738/M-SADE2E3GIJ4RWZ/LB1D1

Departure

Time 2026-04-24 21:09
Airport Chicago Midway International Airport (KMDW)

Arrival

Time 2026-04-24 22:05
Airport General Mitchell International Airport (KMKE)
Time Latitude Longitude Altitude Speed Heading
2026-04-24 20:48 41.78882 -87.74260 628 ft 0 kts 171°
2026-04-24 20:57 41.78889 -87.74261 628 ft 2 kts 171°
2026-04-24 20:58 41.78905 -87.74264 633 ft 2 kts 171°
2026-04-24 20:58 41.78921 -87.74268 632 ft 2 kts 171°
2026-04-24 20:58 41.78937 -87.74271 632 ft 2 kts 171°
2026-04-24 20:58 41.78953 -87.74274 630 ft 0 kts 171°
2026-04-24 21:03 41.78940 -87.74281 633 ft 5 kts 214°
2026-04-24 21:03 41.78936 -87.74332 628 ft 9 kts 284°
2026-04-24 21:04 41.78933 -87.74437 637 ft 16 kts 251°
2026-04-24 21:04 41.78865 -87.74570 630 ft 18 kts 224°
2026-04-24 21:04 41.78777 -87.74684 628 ft 17 kts 224°
2026-04-24 21:04 41.78688 -87.74781 634 ft 17 kts 200°
2026-04-24 21:05 41.78583 -87.74749 632 ft 16 kts 134°
2026-04-24 21:05 41.78507 -87.74643 632 ft 15 kts 134°
2026-04-24 21:05 41.78434 -87.74543 631 ft 15 kts 134°
2026-04-24 21:05 41.78365 -87.74446 628 ft 14 kts 133°
2026-04-24 21:06 41.78291 -87.74369 628 ft 13 kts 165°
2026-04-24 21:06 41.78210 -87.74323 628 ft 13 kts 148°
2026-04-24 21:06 41.78124 -87.74307 633 ft 12 kts 179°
2026-04-24 21:06 41.78038 -87.74303 633 ft 12 kts 175°
2026-04-24 21:07 41.78004 -87.74304 631 ft 0 kts 197°
2026-04-24 21:08 41.77976 -87.74329 630 ft 14 kts 219°
2026-04-24 21:08 41.77955 -87.74408 636 ft 8 kts 298°
2026-04-24 21:08 41.77978 -87.74447 630 ft 0 kts 312°
2026-04-24 21:09 41.77979 -87.74449 630 ft 5 kts 312°
2026-04-24 21:09 41.78136 -87.74671 633 ft 72 kts 313°
2026-04-24 21:09 41.78686 -87.75450 637 ft 154 kts 313°
2026-04-24 21:09 41.79485 -87.76560 1462 ft 174 kts 312°
2026-04-24 21:10 41.80503 -87.77498 2544 ft 183 kts 338°
2026-04-24 21:10 41.81645 -87.77868 4066 ft 153 kts 347°
2026-04-24 21:10 41.82659 -87.78009 5247 ft 150 kts 351°
2026-04-24 21:10 41.82905 -87.78034 5378 ft 157 kts 351°
2026-04-24 21:35 41.83158 -87.78061 5471 ft 160 kts 347°
2026-04-24 21:35 41.84291 -87.78353 5586 ft 172 kts 343°
2026-04-24 21:35 41.85533 -87.78575 5714 ft 187 kts 350°
2026-04-24 21:36 41.86872 -87.78694 5838 ft 198 kts 352°
2026-04-24 21:36 41.88280 -87.78796 5918 ft 206 kts 353°
2026-04-24 21:36 41.89738 -87.78904 5999 ft 214 kts 352°
2026-04-24 21:36 41.91244 -87.79022 6082 ft 223 kts 353°
2026-04-24 21:37 41.92825 -87.79153 6147 ft 232 kts 353°
2026-04-24 21:37 41.94453 -87.79292 6213 ft 237 kts 353°
2026-04-24 21:37 41.96123 -87.79438 6257 ft 242 kts 353°
2026-04-24 21:37 41.97824 -87.79590 6339 ft 247 kts 353°
2026-04-24 21:38 41.99561 -87.79748 6380 ft 254 kts 353°
2026-04-24 21:38 42.01412 -87.79878 6767 ft 272 kts 355°
2026-04-24 21:38 42.03312 -87.79997 6853 ft 273 kts 354°
2026-04-24 21:38 42.05204 -87.80142 6881 ft 272 kts 354°
2026-04-24 21:39 42.07070 -87.80302 6894 ft 273 kts 354°
2026-04-24 21:39 42.08975 -87.80474 6903 ft 274 kts 353°
2026-04-24 21:39 42.10884 -87.80652 6914 ft 277 kts 353°
2026-04-24 21:39 42.12816 -87.80835 6874 ft 275 kts 353°
2026-04-24 21:40 42.14709 -87.81014 6883 ft 271 kts 353°
2026-04-24 21:40 42.16591 -87.81195 6885 ft 273 kts 353°
2026-04-24 21:40 42.18489 -87.81378 6886 ft 273 kts 353°
2026-04-24 21:40 42.20393 -87.81563 6904 ft 276 kts 353°
2026-04-24 21:41 42.22315 -87.81749 6873 ft 276 kts 353°
2026-04-24 21:41 42.24232 -87.81934 6876 ft 275 kts 353°
2026-04-24 21:41 42.26113 -87.82116 6885 ft 273 kts 353°
2026-04-24 21:41 42.28015 -87.82300 6865 ft 274 kts 353°
2026-04-24 21:42 42.29920 -87.82484 6877 ft 273 kts 353°
2026-04-24 21:42 42.31826 -87.82600 6871 ft 276 kts 359°
2026-04-24 21:42 42.33741 -87.82400 6870 ft 276 kts
2026-04-24 21:42 42.35627 -87.82113 6862 ft 276 kts
2026-04-24 21:43 42.37535 -87.81821 6871 ft 275 kts
2026-04-24 21:43 42.39434 -87.81548 6869 ft 274 kts
2026-04-24 21:43 42.41334 -87.81289 6865 ft 274 kts
2026-04-24 21:43 42.43232 -87.81040 6873 ft 274 kts
2026-04-24 21:44 42.45144 -87.80792 6867 ft 275 kts
2026-04-24 21:44 42.47053 -87.80545 6869 ft 275 kts
2026-04-24 21:44 42.48710 -87.80464 6876 ft 274 kts 356°
2026-04-24 21:54 42.50291 -87.80550 6877 ft 275 kts 354°
2026-04-24 21:54 42.52202 -87.80705 6869 ft 275 kts 354°
2026-04-24 21:54 42.54108 -87.80861 6877 ft 275 kts 354°
2026-04-24 21:54 42.55996 -87.81007 6878 ft 275 kts 354°
2026-04-24 21:55 42.57927 -87.81146 6881 ft 274 kts 354°
2026-04-24 21:55 42.59810 -87.81275 6879 ft 274 kts 354°
2026-04-24 21:55 42.61719 -87.81402 6876 ft 274 kts 354°
2026-04-24 21:55 42.63627 -87.81526 6873 ft 274 kts 354°
2026-04-24 21:56 42.65526 -87.81648 6877 ft 274 kts 354°
2026-04-24 21:56 42.67435 -87.81770 6875 ft 274 kts 354°
2026-04-24 21:56 42.69343 -87.81892 6883 ft 274 kts 354°
2026-04-24 21:56 42.71249 -87.82013 6881 ft 274 kts 354°
2026-04-24 21:57 42.73157 -87.82104 6878 ft 275 kts 357°
2026-04-24 21:57 42.75049 -87.82009 6885 ft 276 kts
2026-04-24 21:57 42.76968 -87.81852 6871 ft 277 kts
2026-04-24 21:57 42.78894 -87.81697 6886 ft 278 kts
2026-04-24 21:58 42.80836 -87.81554 6868 ft 273 kts 360°
2026-04-24 21:58 42.82666 -87.81422 6783 ft 253 kts 360°
2026-04-24 21:58 42.84359 -87.81303 6655 ft 232 kts 359°
2026-04-24 21:58 42.85911 -87.81195 6518 ft 214 kts 359°
2026-04-24 21:59 42.87343 -87.81052 6372 ft 200 kts
2026-04-24 21:59 42.88531 -87.80122 5925 ft 210 kts 49°
2026-04-24 21:59 42.89192 -87.78376 5623 ft 208 kts 67°
2026-04-24 21:59 42.89652 -87.76516 5310 ft 205 kts 70°
2026-04-24 22:00 42.90082 -87.74678 5002 ft 201 kts 70°
2026-04-24 22:00 42.90641 -87.72955 4712 ft 196 kts 52°
2026-04-24 22:00 42.91580 -87.71658 4429 ft 191 kts 30°
2026-04-24 22:00 42.92762 -87.70893 4170 ft 187 kts 13°
2026-04-24 22:01 42.94038 -87.70620 3902 ft 184 kts 357°
2026-04-24 22:01 42.95291 -87.70827 3638 ft 180 kts 340°
2026-04-24 22:01 42.96378 -87.71574 3385 ft 176 kts 320°
2026-04-24 22:01 42.97180 -87.72801 3142 ft 173 kts 301°
2026-04-24 22:02 42.97629 -87.74314 2892 ft 172 kts 284°
2026-04-24 22:02 42.97699 -87.75946 2653 ft 173 kts 265°
2026-04-24 22:02 42.97397 -87.77480 2490 ft 164 kts 253°
2026-04-24 22:02 42.97033 -87.78943 2233 ft 160 kts 256°
2026-04-24 22:03 42.96689 -87.80375 2031 ft 159 kts 255°
2026-04-24 22:03 42.96338 -87.81815 1813 ft 163 kts 255°
2026-04-24 22:03 42.95979 -87.83280 1606 ft 161 kts 255°
2026-04-24 22:03 42.95627 -87.84721 1348 ft 158 kts 255°
2026-04-24 22:04 42.95267 -87.86117 1203 ft 158 kts 253°
2026-04-24 22:04 42.94929 -87.87551 995 ft 159 kts 256°
2026-04-24 22:04 42.94580 -87.88997 750 ft 160 kts 254°
2026-04-24 22:04 42.94288 -87.90224 697 ft 78 kts 248°
2026-04-24 22:05 42.94206 -87.90556 705 ft 32 kts 252°
2026-04-24 22:05 42.94193 -87.90732 712 ft 11 kts 335°
2026-04-24 22:05 42.94239 -87.90746 712 ft 1 kts
2026-04-24 22:05 42.94244 -87.90745 713 ft 1 kts
2026-04-24 22:06 42.94273 -87.90721 711 ft 8 kts 41°
2026-04-24 22:06 42.94316 -87.90661 713 ft 9 kts 46°
2026-04-24 22:06 42.94366 -87.90588 713 ft 14 kts 46°
2026-04-24 22:06 42.94416 -87.90458 716 ft 16 kts 72°
2026-04-24 22:07 42.94451 -87.90316 711 ft 15 kts 70°
2026-04-24 22:07 42.94473 -87.90176 711 ft 15 kts 73°
2026-04-24 22:07 42.94505 -87.90047 712 ft 14 kts 70°
2026-04-24 22:07 42.94582 -87.89995 714 ft 13 kts 352°
2026-04-24 22:08 42.94653 -87.90059 712 ft 12 kts 323°
2026-04-24 22:08 42.94731 -87.90083 715 ft 12 kts 10°
2026-04-24 22:08 42.94735 -87.90082 714 ft 0 kts 15°